When you browse on this site, cookies collect data to enhance your experience and personalize the content and advertising you see.
Visit our Privacy Policy to learn more. By continuing to use the site, you agree to this use of cookies and data.
  • In Österreich
  • Länderverzeichnis
  • Für 7 Tage
  • Wassertemperatur
  • Satellitenkarten
  • Wetterkarte
  • News
  • Widgets
  • user-avatar
    Anmelden

    Stündliche Wetter Tirana

    Heute, 18 Januar, Freitag

    Zeit Temperatur Niederschläge Wind Luftdruck Luftfeuchtigkeit
    00:00 +3°C° 0 mm 5 m/S 756 mmHg 49%
    01:00 +5°C° 0 mm 5 m/S 756 mmHg 56%
    02:00 +5°C° 0 mm 5 m/S 756 mmHg 60%
    03:00 +5°C° 0 mm 5 m/S 755 mmHg 63%
    04:00 +5°C° 0 mm 5 m/S 755 mmHg 67%
    05:00 +5°C° 0 mm 5 m/S 755 mmHg 68%
    06:00 +5°C° 0 mm 5 m/S 755 mmHg 69%
    07:00 +5°C° 0 mm 6 m/S 754 mmHg 68%
    08:00 +7°C° 0.1 mm 6 m/S 754 mmHg 69%
    09:00 +8°C° 0.1 mm 6 m/S 754 mmHg 70%
    10:00 +9°C° 0.1 mm 6 m/S 754 mmHg 71%
    11:00 +9°C° 0.1 mm 6 m/S 754 mmHg 71%
    12:00 +10°C° 0.1 mm 6 m/S 754 mmHg 70%
    13:00 +10°C° 0.1 mm 7 m/S 753 mmHg 70%
    14:00 +10°C° 0.2 mm 6 m/S 753 mmHg 72%
    15:00 +10°C° 0.2 mm 6 m/S 753 mmHg 74%
    16:00 +9°C° 0.2 mm 6 m/S 753 mmHg 75%
    17:00 +8°C° 0.2 mm 6 m/S 753 mmHg 77%
    18:00 +7°C° 0.2 mm 6 m/S 753 mmHg 78%
    19:00 +5°C° 0.2 mm 6 m/S 753 mmHg 80%
    20:00 +5°C° 0.1 mm 6 m/S 753 mmHg 79%
    21:00 +5°C° 0.1 mm 6 m/S 754 mmHg 79%
    22:00 +5°C° 0.1 mm 6 m/S 754 mmHg 78%
    23:00 +5°C° 0.1 mm 6 m/S 754 mmHg 78%

    Morgen, 19 Januar, Samstag

    Zeit Temperatur Niederschläge Wind Luftdruck Luftfeuchtigkeit
    00:00 +6°C° 0.1 mm 5 m/S 754 mmHg 77%
    01:00 +6°C° 0.1 mm 5 m/S 754 mmHg 77%
    02:00 +6°C° 0.1 mm 5 m/S 754 mmHg 76%
    03:00 +5°C° 0.1 mm 5 m/S 754 mmHg 76%
    04:00 +5°C° 0.1 mm 5 m/S 754 mmHg 75%
    05:00 +5°C° 0.1 mm 4 m/S 754 mmHg 75%
    06:00 +5°C° 0.1 mm 4 m/S 754 mmHg 74%
    07:00 +5°C° 0.1 mm 4 m/S 754 mmHg 74%
    08:00 +8°C° 0 mm 3 m/S 754 mmHg 70%
    09:00 +10°C° 0 mm 3 m/S 754 mmHg 65%
    10:00 +11°C° 0 mm 3 m/S 754 mmHg 61%
    11:00 +12°C° 0 mm 3 m/S 754 mmHg 58%
    12:00 +13°C° 0 mm 3 m/S 754 mmHg 56%
    13:00 +15°C° 0 mm 2 m/S 753 mmHg 53%
    14:00 +14°C° 0.2 mm 3 m/S 753 mmHg 58%
    15:00 +13°C° 0.2 mm 3 m/S 753 mmHg 63%
    16:00 +12°C° 0.2 mm 3 m/S 753 mmHg 67%
    17:00 +11°C° 0.3 mm 3 m/S 753 mmHg 70%
    18:00 +10°C° 0.3 mm 3 m/S 753 mmHg 73%
    19:00 +8°C° 0.3 mm 4 m/S 753 mmHg 76%
    20:00 +9°C° 0.1 mm 3 m/S 753 mmHg 76%
    21:00 +8°C° 0.1 mm 3 m/S 753 mmHg 76%
    22:00 +8°C° 0.1 mm 3 m/S 753 mmHg 75%
    23:00 +8°C° 0.2 mm 3 m/S 753 mmHg 75%

    übermorgen, 20 Januar, Sonntag

    Zeit Temperatur Niederschläge Wind Luftdruck Luftfeuchtigkeit
    00:00 +8°C° 0.2 mm 3 m/S 753 mmHg 74%
    01:00 +7°C° 0.2 mm 3 m/S 753 mmHg 74%
    02:00 +7°C° 0.5 mm 3 m/S 753 mmHg 74%
    03:00 +7°C° 0.5 mm 3 m/S 752 mmHg 74%
    04:00 +7°C° 0.5 mm 3 m/S 752 mmHg 74%
    05:00 +7°C° 0.4 mm 3 m/S 752 mmHg 74%
    06:00 +7°C° 0.4 mm 3 m/S 752 mmHg 73%
    07:00 +7°C° 0.4 mm 3 m/S 753 mmHg 73%
    08:00 +8°C° 0.5 mm 3 m/S 753 mmHg 72%
    09:00 +9°C° 0.5 mm 3 m/S 753 mmHg 70%
    10:00 +10°C° 0.5 mm 3 m/S 753 mmHg 68%
    11:00 +11°C° 0.4 mm 3 m/S 753 mmHg 69%
    12:00 +11°C° 0.4 mm 3 m/S 752 mmHg 70%
    13:00 +13°C° 0.4 mm 2 m/S 752 mmHg 71%
    14:00 +12°C° 0.3 mm 2 m/S 752 mmHg 74%
    15:00 +12°C° 0.3 mm 2 m/S 752 mmHg 77%
    16:00 +10°C° 0.3 mm 2 m/S 752 mmHg 81%
    17:00 +11°C° 0 mm 1 m/S 752 mmHg 83%
    18:00 +10°C° 0 mm 1 m/S 753 mmHg 85%
    19:00 +9°C° 0 mm 1 m/S 753 mmHg 88%
    20:00 +9°C° 0 mm 1 m/S 753 mmHg 88%
    21:00 +8°C° 0 mm 1 m/S 754 mmHg 88%
    22:00 +7°C° 0 mm 2 m/S 754 mmHg 88%
    23:00 +7°C° 0 mm 2 m/S 754 mmHg 87%

    21 Januar, Montag

    Zeit Temperatur Niederschläge Wind Luftdruck Luftfeuchtigkeit
    00:00 +7°C° 0 mm 2 m/S 754 mmHg 86%
    01:00 +6°C° 0 mm 2 m/S 754 mmHg 86%
    02:00 +6°C° 0 mm 2 m/S 754 mmHg 85%
    03:00 +6°C° 0 mm 2 m/S 754 mmHg 84%
    04:00 +6°C° 0 mm 2 m/S 754 mmHg 83%
    05:00 +6°C° 0 mm 2 m/S 754 mmHg 81%
    06:00 +5°C° 0 mm 2 m/S 754 mmHg 80%
    07:00 +4°C° 0 mm 3 m/S 754 mmHg 78%
    08:00 +7°C° 0 mm 2 m/S 754 mmHg 72%
    09:00 +9°C° 0 mm 2 m/S 754 mmHg 65%
    10:00 +10°C° 0 mm 2 m/S 754 mmHg 59%
    11:00 +12°C° 0 mm 2 m/S 754 mmHg 55%
    12:00 +13°C° 0 mm 1 m/S 754 mmHg 51%
    13:00 +14°C° 0 mm 1 m/S 754 mmHg 47%
    14:00 +13°C° 0 mm 1 m/S 754 mmHg 51%
    15:00 +13°C° 0 mm 1 m/S 754 mmHg 54%
    16:00 +12°C° 0 mm 1 m/S 754 mmHg 58%
    17:00 +12°C° 0 mm 1 m/S 754 mmHg 61%
    18:00 +10°C° 0 mm 2 m/S 754 mmHg 64%
    19:00 +9°C° 0 mm 2 m/S 755 mmHg 67%
    20:00 +8°C° 0 mm 3 m/S 755 mmHg 68%
    21:00 +8°C° 0 mm 3 m/S 755 mmHg 69%
    22:00 +8°C° 0 mm 3 m/S 755 mmHg 70%
    23:00 +7°C° 0 mm 3 m/S 755 mmHg 69%

    22 Januar, Dienstag

    Zeit Temperatur Niederschläge Wind Luftdruck Luftfeuchtigkeit
    00:00 +6°C° 0 mm 4 m/S 754 mmHg 69%
    01:00 +6°C° 0 mm 4 m/S 754 mmHg 69%
    02:00 +6°C° 0.1 mm 4 m/S 754 mmHg 69%
    03:00 +6°C° 0.1 mm 4 m/S 753 mmHg 69%
    04:00 +6°C° 0.1 mm 4 m/S 753 mmHg 69%
    05:00 +6°C° 0 mm 4 m/S 753 mmHg 69%
    06:00 +6°C° 0 mm 4 m/S 753 mmHg 68%
    07:00 +6°C° 0 mm 4 m/S 752 mmHg 68%
    08:00 +7°C° 0 mm 5 m/S 752 mmHg 65%
    09:00 +8°C° 0 mm 5 m/S 752 mmHg 61%
    10:00 +10°C° 0 mm 5 m/S 752 mmHg 58%
    11:00 +11°C° 0 mm 6 m/S 751 mmHg 55%
    12:00 +11°C° 0 mm 6 m/S 750 mmHg 52%
    13:00 +12°C° 0 mm 7 m/S 749 mmHg 49%
    14:00 +13°C° 0.2 mm 6 m/S 749 mmHg 54%
    15:00 +11°C° 0.2 mm 6 m/S 748 mmHg 59%
    16:00 +10°C° 0.2 mm 5 m/S 747 mmHg 63%
    17:00 +9°C° 1.7 mm 5 m/S 747 mmHg 69%
    18:00 +8°C° 1.7 mm 4 m/S 747 mmHg 75%
    19:00 +8°C° 1.7 mm 4 m/S 746 mmHg 81%
    20:00 +7°C° 0.5 mm 4 m/S 746 mmHg 79%
    21:00 +7°C° 0.5 mm 4 m/S 745 mmHg 77%
    22:00 +7°C° 0.5 mm 4 m/S 745 mmHg 76%
    23:00 +7°C° 0.9 mm 4 m/S 744 mmHg 77%

    23 Januar, Mittwoch

    Zeit Temperatur Niederschläge Wind Luftdruck Luftfeuchtigkeit
    00:00 +8°C° 0.9 mm 3 m/S 743 mmHg 78%
    01:00 +7°C° 0.9 mm 3 m/S 743 mmHg 79%
    02:00 +7°C° 3.4 mm 5 m/S 742 mmHg 82%
    03:00 +6°C° 3.4 mm 7 m/S 741 mmHg 85%
    04:00 +6°C° 3.4 mm 9 m/S 741 mmHg 88%
    05:00 +6°C° 1 mm 9 m/S 741 mmHg 86%
    06:00 +6°C° 1 mm 9 m/S 740 mmHg 85%
    07:00 +6°C° 1 mm 9 m/S 740 mmHg 84%
    08:00 +6°C° 1 mm 9 m/S 740 mmHg 82%
    09:00 +7°C° 1 mm 9 m/S 740 mmHg 79%
    10:00 +7°C° 1 mm 9 m/S 740 mmHg 77%
    11:00 +8°C° 0.9 mm 9 m/S 739 mmHg 76%
    12:00 +8°C° 0.9 mm 9 m/S 739 mmHg 75%
    13:00 +8°C° 0.9 mm 9 m/S 739 mmHg 74%
    14:00 +8°C° 0.9 mm 9 m/S 738 mmHg 75%
    15:00 +8°C° 0.9 mm 10 m/S 738 mmHg 77%
    16:00 +7°C° 0.9 mm 10 m/S 738 mmHg 78%
    17:00 +7°C° 1.3 mm 10 m/S 738 mmHg 80%
    18:00 +6°C° 1.3 mm 10 m/S 737 mmHg 82%
    19:00 +6°C° 1.3 mm 11 m/S 737 mmHg 85%
    20:00 +6°C° 1.1 mm 10 m/S 737 mmHg 84%
    21:00 +6°C° 1.1 mm 10 m/S 737 mmHg 83%
    22:00 +6°C° 1.1 mm 10 m/S 736 mmHg 82%
    23:00 +6°C° 0.4 mm 10 m/S 736 mmHg 82%
    Mehr zeigen